This is the latest recevied weather packets stored in our database for station/object OE6ACM-14. If no packets are shown the sender has not sent any weather packets the latest 10 day(s).
| Time | Temp. | Humidity | Pressure | Rain* | Wind** | Luminosity | Snow |
|---|---|---|---|---|---|---|---|
| 1777828296 | 21.67° C | 33% | 926.1 hPa | - | - | - | - |
| 1777827996 | 22.78° C | 31% | 926 hPa | - | - | - | - |
| 1777827696 | 23.33° C | 32% | 925.9 hPa | - | - | - | - |
| 1777827396 | 23.33° C | 32% | 925.9 hPa | - | - | - | - |
| 1777827096 | 23.33° C | 31% | 925.9 hPa | - | - | - | - |
| 1777826796 | 23.33° C | 32% | 925.8 hPa | - | - | - | - |
| 1777826496 | 23.89° C | 31% | 925.8 hPa | - | - | - | - |
| 1777826196 | 23.89° C | 31% | 925.9 hPa | - | - | - | - |
| 1777825896 | 23.89° C | 29% | 925.7 hPa | - | - | - | - |
| 1777825596 | 24.44° C | 29% | 925.8 hPa | - | - | - | - |
| 1777825296 | 25° C | 30% | 925.7 hPa | - | - | - | - |
| 1777824996 | 24.44° C | 30% | 925.7 hPa | - | - | - | - |
| 1777824696 | 25° C | 28% | 925.7 hPa | - | - | - | - |
| 1777824396 | 25° C | 28% | 925.6 hPa | - | - | - | - |
| 1777824096 | 25.56° C | 29% | 925.7 hPa | - | - | - | - |
| 1777823796 | 25.56° C | 28% | 925.7 hPa | - | - | - | - |
| 1777823496 | 25.56° C | 28% | 925.6 hPa | - | - | - | - |
| 1777823196 | 25° C | 28% | 925.7 hPa | - | - | - | - |
| 1777822896 | 26.11° C | 28% | 925.7 hPa | - | - | - | - |
| 1777822596 | 25.56° C | 27% | 925.7 hPa | - | - | - | - |
| 1777822296 | 25.56° C | 28% | 925.7 hPa | - | - | - | - |
| 1777821996 | 25.56° C | 28% | 925.8 hPa | - | - | - | - |
| 1777821696 | 25.56° C | 28% | 925.8 hPa | - | - | - | - |
| 1777821396 | 26.11° C | 27% | 925.8 hPa | - | - | - | - |
| 1777821096 | 26.11° C | 27% | 925.9 hPa | - | - | - | - |
* Rain since midnight (hover to see other rain measurements)
** Current wind speed in m/s (hover to see current wind gust speed)